Location: Babice
(50.3480°N, 22.9363°E)
Time: 12:46:47
(UTC+00:00)

Cosmos 405 Rocket - Pass Details

Date: 14 July 2020
Orbit: 489 x 555 km, 81.3° (Epoch: 07 August)

Event Time Altitude Azimuth Distance (km) Brightness Sun altitude
Exits shadow 00:52:57 15° 242° (WSW) 1,452 4.4 -11.8°
Maximum altitude 00:55:19 26° 291° (WNW) 1,028 4.1 -11.6°
Drops below altitude 10° 00:58:33 10° 350° (N) 1,721 6.0 -11.3°
Sets 01:00:55 0° 3° (N) 2,601 7.4 -11.1°
